Вернуться в каталог

FENGYUN 1C DEB *

LostSSO
NORAD 47033·DEBRIS·🇨🇳 China

Запущен May 10, 1999 с Taiyuan Satellite Launch Center

Loading…

Ближайшие Пролёты (ближайшие 24 часа)

TLE

УстаревшееSource: Space-Track

Эпоха: Sep 16, 2022, 01:10 UTC

1 47033U 99025FBK 22259.04865802  .00001179  00000-0  86408-3 0  9992
2 47033  98.8539   5.7738 0117131  14.3056 163.6429 13.94540725316274

Отслеживайте FENGYUN 1C DEB * в реальном времени с AllMySat

Download on the App Store